Tracking 25734 objects as of 28-May-2022
HD Live streaming from Space Station
objects crossing your sky now

TITAN 3C TRANSTAGE DEB

Track TITAN 3C TRANSTAGE DEB now!
10-day predictions


NORAD ID: 1668
Int'l Code: 1965-082AF
Perigee: 641.0 km
Apogee: 664.5 km
Inclination: 32.1 °
Period: 97.6 minutes
Semi major axis: 7023 km
RCS: 2.8531 m2 (large)
Launch date: October 15, 1965
Source: United States (US)
Launch site: AIR FORCE EASTERN TEST RANGE (AFETR)

Note: This is SATELLITE DEBRIS
aabbcc
Your satellite tracking list
Your tracking list is empty




NASA's NSSDC Master Catalog

Two Line Element Set (TLE):
1 01668U 65082AF  22147.75269961  .00001011  00000-0  14134-3 0  9992
2 01668  32.0679 170.4487 0016682 290.1004  69.7849 14.74860245998976
Source of the keplerian elements: AFSPC